S56BOT-5 Weather Reports


time (UTC)temp
C
wind
direction
speed
KPH
gust
KPH
rain 1hr
cm
rain 24hr
cm
rain mn
cm
humidity
%
barometer
mb
20260906053101 22 330 35.4 53.1 0.00 0.00 0.00 55 1022.4
20260906051611 22 40 32.2 61.2 0.00 0.00 0.00 56 1022.2
20260906050054 22 330 33.8 59.5 0.00 0.00 0.00 58 1022.3
20260906044552 22 56 32.2 54.7 0.00 0.00 0.00 58 1022.0
20260906043046 22 46 32.2 56.3 0.00 0.00 0.00 58 1022.0
20260906041555 22 330 33.8 64.4 0.00 0.00 0.00 59 1021.9
20260906040130 22 330 32.2 56.3 0.00 0.00 0.00 58 1021.8
20260906034555 22 330 30.6 48.3 0.00 0.00 0.00 57 1021.8
20260906033101 22 330 33.8 57.9 0.00 0.00 0.00 56 1021.7
20260906031553 22 330 33.8 51.5 0.00 0.00 0.00 56 1021.6
20260906030052 22 330 30.6 46.7 0.00 0.00 0.00 56 1021.6
20260906024559 23 330 29.0 49.9 0.00 0.00 0.00 56 1021.7
20260906023044 23 46 27.4 49.9 0.00 0.00 0.00 55 1021.6
20260906021555 23 330 30.6 45.1 0.00 0.00 0.00 55 1021.5
20260906020052 23 330 29.0 46.7 0.00 0.00 0.00 54 1021.4
20260906014546 23 330 27.4 43.5 0.00 0.00 0.00 54 1021.5
20260906013100 23 44 25.7 45.1 0.00 0.00 0.00 55 1021.5
20260906011544 23 46 24.1 43.5 0.00 0.00 0.00 55 1021.6
20260906010057 23 45 22.5 41.8 0.00 0.00 0.00 54 1021.4
20260906004553 23 55 25.7 41.8 0.00 0.00 0.00 54 1021.3
20260906003044 23 54 24.1 38.6 0.00 0.00 0.00 54 1021.3
20260906001546 23 50 24.1 41.8 0.00 0.00 0.00 55 1021.3
20260906000057 23 330 20.9 40.2 0.00 0.00 0.00 56 1021.2
20260905234547 23 330 25.7 40.2 0.00 0.00 0.00 55 1021.1
20260905233100 23 48 24.1 40.2 0.00 0.00 0.00 55 1021.0
20260905231559 23 50 22.5 37.0 0.00 0.00 0.00 56 1021.1
20260905230105 23 330 25.7 38.6 0.00 0.00 0.00 55 1021.1
20260905224611 23 330 27.4 41.8 0.00 0.00 0.00 55 1021.1
20260905223111 23 39 24.1 43.5 0.00 0.00 0.00 55 1020.9
20260905221600 24 330 24.1 41.8 0.00 0.00 0.00 55 1020.8
20260905220055 24 330 22.5 41.8 0.00 0.00 0.00 54 1020.7
20260905214551 24 330 22.5 38.6 0.00 0.00 0.00 54 1020.7
20260905213102 24 54 20.9 37.0 0.00 0.00 0.00 54 1020.6
20260905211555 24 91 24.1 37.0 0.00 0.00 0.00 54 1020.6
20260905210059 24 118 22.5 43.5 0.00 0.00 0.00 54 1020.8
20260905204556 24 330 20.9 40.2 0.00 0.00 0.00 55 1020.5
20260905203050 24 330 20.9 41.8 0.00 0.00 0.00 55 1020.3
20260905201548 24 330 20.9 32.2 0.00 0.00 0.00 56 1020.2
20260905200058 25 330 22.5 38.6 0.00 0.00 0.00 56 1020.0
20260905194554 25 330 19.3 35.4 0.00 0.00 0.00 56 1020.1
20260905193044 24 53 19.3 30.6 0.00 0.00 0.00 56 1020.0
20260905191546 24 330 17.7 30.6 0.00 0.00 0.00 56 1019.9
20260905190052 24 87 17.7 25.7 0.00 0.00 0.00 55 1019.8
20260905184559 25 104 17.7 29.0 0.00 0.00 0.00 55 1019.6
20260905183047 25 330 17.7 30.6 0.00 0.00 0.00 54 1019.4
20260905181554 25 330 17.7 32.2 0.00 0.00 0.00 54 1019.2
20260905174546 25 330 17.7 37.0 0.00 0.00 0.00 52 1019.1
20260905173119 26 330 24.1 33.8 0.00 0.00 0.00 52 1018.8
20260905171555 26 330 16.1 25.7 0.00 0.00 0.00 52 1018.7
20260905170108 27 330 6.4 12.9 0.00 0.00 0.00 52 1018.7
20260905164606 28 158 4.8 11.3 0.00 0.00 0.00 52 1018.5
20260905163103 29 172 3.2 9.7 0.00 0.00 0.00 48 1018.2
20260905161606 30 182 1.6 8.0 0.00 0.00 0.00 52 1018.0
20260905160052 29 0 1.6 9.7 0.00 0.00 0.00 50 1017.9
20260905154610 29 146 3.2 8.0 0.00 0.00 0.00 50 1018.0
20260905153057 30 177 3.2 9.7 0.00 0.00 0.00 53 1017.9
20260905151550 30 197 1.6 9.7 0.00 0.00 0.00 54 1018.0
20260905150100 30 260 6.4 11.3 0.00 0.00 0.00 49 1017.9
20260905144555 30 204 4.8 17.7 0.00 0.00 0.00 49 1017.9
20260905143047 30 216 9.7 17.7 0.00 0.00 0.00 47 1017.8
20260905141555 30 204 11.3 17.7 0.00 0.00 0.00 46 1017.9
20260905140055 30 237 9.7 17.7 0.00 0.00 0.00 48 1017.9
20260905134555 30 212 6.4 14.5 0.00 0.00 0.00 57 1018.0
20260905133045 30 231 9.7 17.7 0.00 0.00 0.00 60 1018.0
20260905131544 29 206 6.4 17.7 0.00 0.00 0.00 63 1017.9
20260905130055 29 258 8.0 14.5 0.00 0.00 0.00 60 1018.1
20260905124552 29 216 8.0 16.1 0.00 0.00 0.00 57 1018.2
20260905123103 29 166 4.8 14.5 0.00 0.00 0.00 56 1018.3
20260905121552 28 262 8.0 16.1 0.00 0.00 0.00 55 1018.3
20260905120059 29 265 8.0 17.7 0.00 0.00 0.00 55 1018.4
20260905114604 29 232 6.4 16.1 0.00 0.00 0.00 52 1018.5
20260905113047 29 265 3.2 14.5 0.00 0.00 0.00 49 1018.5
20260905111545 29 227 4.8 11.3 0.00 0.00 0.00 48 1018.6
20260905110055 30 0 1.6 11.3 0.00 0.00 0.00 43 1018.5
20260905104553 28 260 6.4 12.9 0.00 0.00 0.00 44 1018.5
20260905103058 27 264 4.8 9.7 0.00 0.00 0.00 43 1018.6
20260905101559 29 247 1.6 11.3 0.00 0.00 0.00 40 1018.7
20260905100114 28 259 4.8 12.9 0.00 0.00 0.00 43 1018.7
20260905094549 28 242 6.4 14.5 0.00 0.00 0.00 39 1018.6
20260905093056 28 268 3.2 11.3 0.00 0.00 0.00 41 1018.7
20260905091557 28 143 4.8 12.9 0.00 0.00 0.00 39 1018.5
20260905090045 29 184 4.8 16.1 0.00 0.00 0.00 37 1018.3
20260905084559 29 149 3.2 11.3 0.00 0.00 0.00 37 1018.3
20260905083109 30 0 0.0 4.8 0.00 0.00 0.00 32 1018.3
20260905081553 30 0 1.6 6.4 0.00 0.00 0.00 34 1018.2
20260905080045 29 0 0.0 4.8 0.00 0.00 0.00 34 1018.1
20260905074548 28 125 1.6 8.0 0.00 0.00 0.00 35 1018.0
20260905073059 28 153 0.0 4.8 0.00 0.00 0.00 40 1017.9
20260905071555 26 115 1.6 6.4 0.00 0.00 0.00 41 1017.8
20260905070051 26 134 3.2 9.7 0.00 0.00 0.00 43 1017.7
20260905064612 26 144 3.2 9.7 0.00 0.00 0.00 47 1017.5
20260905063055 25 91 4.8 9.7 0.00 0.00 0.00 49 1017.5
20260905061558 24 120 4.8 14.5 0.00 0.00 0.00 48 1017.3
20260905060050 23 330 4.8 19.3 0.00 0.00 0.00 49 1017.3
20260905054708 23 124 6.4 14.5 0.00 0.00 0.00 51 1017.4